Location: Goettingen
(51.5300°N, 9.9433°E)
Time: 02:41:54
(UTC+02:00)

Envisat - Pass Details

Date: 18 May 2025
Orbit: 761 x 763 km, 98.3° (Epoch: 19 June)

Event Time Altitude Azimuth Distance (km) Brightness Sun altitude
Rises 04:21:22 0° 15° (NNE) 3,239 7.5 -8.2°
Reaches altitude 10° 04:23:41 10° 17° (NNE) 2,309 6.6 -8.0°
Maximum altitude 04:28:47 79° 104° (ESE) 782 3.1 -7.4°
Drops below altitude 10° 04:33:50 10° 192° (SSW) 2,290 5.0 -6.9°
Enters shadow 04:35:27 - 193° (SSW) 2,939 5.5 -6.7°
